Home > Weather > Liestal > Past weeks

Flag for Switzerland Weather for the Past 2 Weeks in Liestal, Basel-Land, Switzerland

Now
43 °F

Clear.


Feels Like: 41 °F
Forecast: 42 / 73 °F
Wind: 3 mph from Northwest

Location: Bale-Mulhouse

Current Time: May 6, 2016 at 4:15:24 AM

Latest Report: May 6, 2016 at 3:30 AM


Visibility: 10 mi

Pressure: 30.04 "Hg

Humidity: 93%

Dew Point: 41 °F

Location of LiestalLocation

Historic Weather in Liestal — Graph

°F

Liestal Temperature Yesterday

Maximum temperature yesterday: 70 °F (at 5:00 PM)
Minimum temperature yesterday: 36 °F (at 4:30 AM)
Average temperature yesterday: 53 °F

High & Low Weather Summary for the Past Weeks

 TemperatureHumidityPressure
High70 °F (Apr 21, 4:00 PM)100% (Apr 21, 7:30 AM)30.36 "Hg (Apr 21, 7:30 AM)
Low30 °F (Apr 28, 5:30 AM)28% (May 5, 3:30 PM)29.68 "Hg (Apr 26, 12:30 PM)
Average48 °F75%30.03 "Hg
* Reported Apr 21 3:00 AM — May 6 3:00 AM, Liestal, Weather by CustomWeather, © 2016

Note: Actual official high and low records may vary slightly from our data, if they occured in-between our weather recording intervals... More about our weather records

Advertising

Liestal Weather History for the Previous 24 Hours

Scroll right to see more
 ConditionsComfort  
Time TempWeatherWind HumidityBarometerVisibility
3:00 AM
Fri, May 6
43 °FClear.3 mph87%30.04 "Hg10 mi
2:30 AM46 °FClear.2 mph82%30.04 "Hg10 mi
2:00 AM48 °FClear.No wind82%30.01 "Hg10 mi
1:30 AM50 °FClear.2 mph71%30.01 "Hg10 mi
1:00 AM50 °FClear.3 mph71%30.01 "Hg10 mi
12:30 AM54 °FClear.6 mph63%30.01 "Hg10 mi
12:00 AM54 °FClear.5 mph63%30.01 "Hg10 mi
11:30 PM
Thu, May 5
50 °FClear.3 mph71%30.01 "Hg10 mi
11:00 PM48 °FClear.No wind76%30.01 "Hg10 mi
10:30 PM52 °FClear.2 mph67%30.01 "Hg10 mi
10:00 PM52 °FClear.1 mph67%30.01 "Hg10 mi
9:30 PM59 °FSunny.3 mph48%30.01 "Hg10 mi
9:00 PM61 °FSunny.3 mph42%30.01 "Hg10 mi
8:30 PM64 °FSunny.6 mph34%30.01 "Hg10 mi
8:00 PM66 °FPassing clouds.10 mph30%30.01 "HgN/A
7:30 PM68 °FPassing clouds.10 mph30%30.01 "HgN/A
7:00 PM68 °FPassing clouds.12 mph28%30.01 "HgN/A
6:30 PM68 °FPassing clouds.10 mph28%30.04 "HgN/A
6:00 PM68 °FPassing clouds.13 mph28%30.04 "HgN/A
5:30 PM68 °FPassing clouds.12 mph30%30.04 "HgN/A
5:00 PM70 °FPassing clouds.9 mph29%30.04 "HgN/A
4:30 PM68 °FPassing clouds.12 mph28%30.04 "HgN/A
4:00 PM68 °FPassing clouds.13 mph28%30.07 "HgN/A
3:30 PM68 °FPassing clouds.12 mph28%30.07 "HgN/A
3:00 PM66 °FPassing clouds.13 mph32%30.07 "HgN/A
2:30 PM66 °FPassing clouds.10 mph32%30.09 "HgN/A
2:00 PM64 °FPassing clouds.12 mph30%30.09 "HgN/A
1:30 PM64 °FPassing clouds.15 mph32%30.09 "HgN/A
1:00 PM63 °FPassing clouds.14 mph32%30.09 "HgN/A
12:30 PM63 °FPassing clouds.12 mph34%30.12 "HgN/A
12:00 PM61 °FSunny.7 mph36%30.12 "Hg10 mi
11:30 AM59 °FSunny.2 mph48%30.12 "Hg10 mi
11:00 AM55 °FSunny.3 mph51%30.15 "Hg10 mi
10:30 AM54 °FPassing clouds.6 mph54%30.15 "HgN/A
10:00 AM52 °FPassing clouds.5 mph62%30.15 "HgN/A
9:30 AM48 °FPassing clouds.6 mph66%30.15 "HgN/A
9:00 AM46 °FPassing clouds.5 mph71%30.18 "HgN/A
8:30 AM45 °FPassing clouds.5 mph71%30.18 "HgN/A
8:00 AM43 °FSunny.5 mph76%30.18 "Hg10 mi
7:30 AM41 °FSunny.3 mph81%30.18 "Hg10 mi
7:00 AM37 °FClear.2 mph87%30.18 "Hg10 mi
6:30 AM36 °FClear.3 mph87%30.18 "Hg10 mi
6:00 AM36 °FPassing clouds.3 mph93%30.18 "HgN/A
5:30 AM36 °FClear.2 mph100%30.21 "Hg10 mi
5:00 AM36 °FPassing clouds.5 mph93%30.21 "HgN/A
4:30 AM36 °FClear.3 mph93%30.21 "Hg10 mi
4:00 AM37 °FClear.2 mph87%30.21 "Hg10 mi
Weather by CustomWeather, © 2016

See weather overviewHow to use our weather pages